{"data":{"norad_id":60495,"intl_designator":"2024-149AD","name":"FLOCK 4BE-34","alt_names":[],"object_type":"PAYLOAD","status":"ACTIVE","operator":null,"country":"US","launch_date":"2024-08-16","launch_site_code":"AFWTR","launch_vehicle":null,"mission":null,"orbit_class":"UNKNOWN","rcs_meters":null,"size_class":null,"mass_kg":null,"dimensions":null,"purposes":["earth_obs"],"wikipedia_slug":null,"has_3d_model":false,"image_url":null,"decayed_at":null,"tle_current":{"epoch":"2026-09-19T11:17:50.497440Z","epoch_age_seconds":103376,"freshness":"FRESH","line1":"1 60495U 24149AD  26262.47072335  .00028747  00000+0  62053-3 0  9999","line2":"2 60495  97.3728 347.9798 0002198 301.1380  58.9653 15.44503260116863","mean_motion":15.4450326,"eccentricity":0.0002198,"inclination_deg":97.3728,"raan_deg":347.9798,"arg_perigee_deg":301.138,"mean_anomaly_deg":58.9653,"bstar":0.00062053,"rev_number":11686,"period_min":93.233859538762,"perigee_km":431.34098317866,"apogee_km":434.33508780426,"semimajor_km":6810.9750354915,"source":"CELESTRAK","updated_at":"2026-09-20T09:00:34.713602Z"}}}